• In Denmark
  • List of Countries
  • For 7 days
  • Water Temperature
  • Satellite Maps
  • Weather Map
  • Weather Widgets
  • user-avatar
    Login

    Hourly Weather Tuzla

    Today, 24 February, Saturday

    Time Temperature Precipitation Wind Pressure Humidity
    00:00 +3°C° 0 mm 1 mps 718 mmHg 94%
    01:00 +2°C° 0 mm 1 mps 718 mmHg 95%
    02:00 +2°C° 0.1 mm 1 mps 718 mmHg 95%
    03:00 +2°C° 0.1 mm 1 mps 718 mmHg 95%
    04:00 +2°C° 0.1 mm 1 mps 718 mmHg 95%
    05:00 +1°C° 0.1 mm 2 mps 718 mmHg 95%
    06:00 +1°C° 0.1 mm 2 mps 718 mmHg 95%
    07:00 +1°C° 0.1 mm 2 mps 718 mmHg 95%
    08:00 +1°C° 0.1 mm 2 mps 718 mmHg 93%
    09:00 +1°C° 0.1 mm 2 mps 719 mmHg 92%
    10:00 +1°C° 0.1 mm 2 mps 719 mmHg 90%
    11:00 +1°C° 0.1 mm 2 mps 719 mmHg 89%
    12:00 +1°C° 0.1 mm 2 mps 719 mmHg 88%
    13:00 +1°C° 0.1 mm 2 mps 719 mmHg 87%
    14:00 -1°C° 0.1 mm 2 mps 719 mmHg 85%
    15:00 -1°C° 0.1 mm 2 mps 719 mmHg 84%
    16:00 -1°C° 0.1 mm 2 mps 719 mmHg 82%
    17:00 -2°C° 0.1 mm 2 mps 719 mmHg 84%
    18:00 -2°C° 0.1 mm 2 mps 720 mmHg 85%
    19:00 -3°C° 0.1 mm 2 mps 720 mmHg 86%
    20:00 -3°C° 0.1 mm 2 mps 720 mmHg 86%
    21:00 -3°C° 0.1 mm 2 mps 720 mmHg 86%
    22:00 -4°C° 0.1 mm 2 mps 720 mmHg 86%
    23:00 -4°C° 0.1 mm 2 mps 721 mmHg 87%

    Tomorrow, 25 February, Sunday

    Time Temperature Precipitation Wind Pressure Humidity
    00:00 -4°C° 0.1 mm 2 mps 721 mmHg 87%
    01:00 -5°C° 0.1 mm 2 mps 721 mmHg 87%
    02:00 -5°C° 0.2 mm 2 mps 721 mmHg 86%
    03:00 -5°C° 0.2 mm 2 mps 721 mmHg 84%
    04:00 -6°C° 0.2 mm 2 mps 721 mmHg 83%
    05:00 -6°C° 0.2 mm 2 mps 721 mmHg 82%
    06:00 -6°C° 0.2 mm 2 mps 721 mmHg 81%
    07:00 -7°C° 0.2 mm 2 mps 721 mmHg 79%
    08:00 -6°C° 0.2 mm 2 mps 721 mmHg 78%
    09:00 -7°C° 0.2 mm 3 mps 721 mmHg 76%
    10:00 -7°C° 0.2 mm 3 mps 722 mmHg 74%
    11:00 -7°C° 0.3 mm 3 mps 721 mmHg 74%
    12:00 -7°C° 0.3 mm 3 mps 721 mmHg 73%
    13:00 -7°C° 0.3 mm 3 mps 721 mmHg 73%
    14:00 -7°C° 0.3 mm 3 mps 721 mmHg 74%
    15:00 -7°C° 0.3 mm 3 mps 720 mmHg 75%
    16:00 -8°C° 0.3 mm 3 mps 720 mmHg 76%
    17:00 -7°C° 0.1 mm 2 mps 720 mmHg 77%
    18:00 -7°C° 0.1 mm 2 mps 720 mmHg 78%
    19:00 -8°C° 0.1 mm 2 mps 720 mmHg 79%
    20:00 -8°C° 0.1 mm 2 mps 720 mmHg 79%
    21:00 -8°C° 0.1 mm 2 mps 720 mmHg 79%
    22:00 -8°C° 0.1 mm 2 mps 720 mmHg 79%
    23:00 -8°C° 0.1 mm 2 mps 719 mmHg 79%

    Day after tomorrow, 26 February, Monday

    Time Temperature Precipitation Wind Pressure Humidity
    00:00 -8°C° 0.1 mm 2 mps 719 mmHg 80%
    01:00 -8°C° 0.1 mm 2 mps 719 mmHg 80%
    02:00 -8°C° 0.1 mm 2 mps 718 mmHg 82%
    03:00 -8°C° 0.1 mm 2 mps 718 mmHg 83%
    04:00 -8°C° 0.1 mm 2 mps 717 mmHg 85%
    05:00 -8°C° 0.1 mm 2 mps 717 mmHg 87%
    06:00 -8°C° 0.1 mm 2 mps 717 mmHg 88%
    07:00 -9°C° 0.1 mm 2 mps 717 mmHg 90%
    08:00 -8°C° 0.1 mm 2 mps 716 mmHg 88%
    09:00 -7°C° 0.1 mm 2 mps 716 mmHg 86%
    10:00 -7°C° 0.1 mm 3 mps 716 mmHg 83%
    11:00 -7°C° 0.2 mm 3 mps 716 mmHg 83%
    12:00 -6°C° 0.2 mm 3 mps 715 mmHg 83%
    13:00 -6°C° 0.2 mm 3 mps 715 mmHg 82%
    14:00 -6°C° 0.2 mm 3 mps 715 mmHg 84%
    15:00 -6°C° 0.2 mm 3 mps 715 mmHg 85%
    16:00 -7°C° 0.2 mm 3 mps 715 mmHg 87%
    17:00 -7°C° 0.4 mm 3 mps 714 mmHg 89%
    18:00 -7°C° 0.4 mm 2 mps 714 mmHg 91%
    19:00 -7°C° 0.4 mm 2 mps 714 mmHg 93%
    20:00 -7°C° 0.3 mm 2 mps 714 mmHg 93%
    21:00 -7°C° 0.3 mm 1 mps 714 mmHg 93%
    22:00 -7°C° 0.3 mm 1 mps 714 mmHg 93%
    23:00 -7°C° 0.1 mm 1 mps 714 mmHg 93%

    27 February, Tuesday

    Time Temperature Precipitation Wind Pressure Humidity
    00:00 -7°C° 0.1 mm 1 mps 714 mmHg 94%
    01:00 -8°C° 0.1 mm 1 mps 714 mmHg 94%
    02:00 -8°C° 0.1 mm 1 mps 714 mmHg 94%
    03:00 -8°C° 0.1 mm 1 mps 714 mmHg 94%
    04:00 -8°C° 0.1 mm 1 mps 714 mmHg 94%
    05:00 -8°C° 0.2 mm 1 mps 714 mmHg 93%
    06:00 -8°C° 0.2 mm 1 mps 714 mmHg 93%
    07:00 -8°C° 0.2 mm 1 mps 714 mmHg 92%
    08:00 -7°C° 0.2 mm 1 mps 714 mmHg 90%
    09:00 -7°C° 0.2 mm 2 mps 715 mmHg 87%
    10:00 -6°C° 0.2 mm 2 mps 715 mmHg 84%
    11:00 -6°C° 0.2 mm 2 mps 715 mmHg 83%
    12:00 -6°C° 0.2 mm 2 mps 715 mmHg 82%
    13:00 -5°C° 0.2 mm 2 mps 715 mmHg 81%
    14:00 -5°C° 0.2 mm 2 mps 715 mmHg 82%
    15:00 -5°C° 0.2 mm 2 mps 715 mmHg 84%
    16:00 -6°C° 0.2 mm 2 mps 715 mmHg 85%
    17:00 -4°C° 0.1 mm 1 mps 716 mmHg 88%
    18:00 -6°C° 0.1 mm 1 mps 716 mmHg 90%
    19:00 -7°C° 0.1 mm 1 mps 716 mmHg 93%
    20:00 -7°C° 0.1 mm 1 mps 716 mmHg 94%
    21:00 -8°C° 0.1 mm 1 mps 717 mmHg 94%
    22:00 -8°C° 0.1 mm 1 mps 717 mmHg 94%
    23:00 -9°C° 0 mm 0 mps 717 mmHg 95%

    28 February, Wednesday

    Time Temperature Precipitation Wind Pressure Humidity
    00:00 -9°C° 0 mm 0 mps 717 mmHg 95%
    01:00 -9°C° 0 mm 0 mps 717 mmHg 95%
    02:00 -9°C° 0 mm 0 mps 718 mmHg 95%
    03:00 -10°C° 0 mm 0 mps 718 mmHg 95%
    04:00 -10°C° 0 mm 0 mps 718 mmHg 94%
    05:00 -10°C° 0 mm 0 mps 718 mmHg 94%
    06:00 -10°C° 0 mm 0 mps 718 mmHg 93%
    07:00 -10°C° 0 mm 0 mps 719 mmHg 93%
    08:00 -8°C° 0 mm 1 mps 719 mmHg 89%
    09:00 -6°C° 0 mm 1 mps 719 mmHg 86%
    10:00 -4°C° 0 mm 1 mps 719 mmHg 82%
    11:00 -3°C° 0.1 mm 1 mps 719 mmHg 82%
    12:00 -3°C° 0.1 mm 1 mps 719 mmHg 82%
    13:00 -2°C° 0.1 mm 1 mps 719 mmHg 81%
    14:00 -2°C° 0.1 mm 1 mps 719 mmHg 83%
    15:00 -2°C° 0.1 mm 1 mps 719 mmHg 84%
    16:00 -5°C° 0.1 mm 2 mps 720 mmHg 85%
    17:00 -4°C° 0 mm 1 mps 720 mmHg 87%
    18:00 -4°C° 0 mm 1 mps 720 mmHg 90%
    19:00 -6°C° 0 mm 1 mps 721 mmHg 93%
    20:00 -7°C° 0 mm 1 mps 721 mmHg 93%
    21:00 -7°C° 0 mm 1 mps 721 mmHg 93%
    22:00 -8°C° 0 mm 0 mps 722 mmHg 93%
    23:00 -8°C° 0 mm 1 mps 722 mmHg 92%

    1 March, Thursday

    Time Temperature Precipitation Wind Pressure Humidity
    00:00 -8°C° 0 mm 1 mps 722 mmHg 92%
    01:00 -8°C° 0 mm 1 mps 722 mmHg 92%
    02:00 -7°C° 0 mm 1 mps 721 mmHg 91%
    03:00 -6°C° 0 mm 1 mps 721 mmHg 91%
    04:00 -6°C° 0 mm 1 mps 721 mmHg 90%
    05:00 -4°C° 0 mm 1 mps 721 mmHg 90%
    06:00 -3°C° 0 mm 1 mps 721 mmHg 90%
    07:00 -3°C° 0 mm 1 mps 720 mmHg 90%
    08:00 -1°C° 0 mm 1 mps 720 mmHg 89%
    09:00 -1°C° 0 mm 2 mps 720 mmHg 89%
    10:00 +2°C° 0 mm 2 mps 720 mmHg 88%
    11:00 +3°C° 0 mm 2 mps 719 mmHg 89%
    12:00 +4°C° 0 mm 2 mps 719 mmHg 90%
    13:00 +5°C° 0 mm 2 mps 718 mmHg 92%
    14:00 +5°C° 0.1 mm 2 mps 717 mmHg 93%
    15:00 +4°C° 0.1 mm 2 mps 717 mmHg 95%
    16:00 +4°C° 0.1 mm 2 mps 716 mmHg 97%
    17:00 +4°C° 0 mm 2 mps 716 mmHg 97%
    18:00 +4°C° 0 mm 2 mps 716 mmHg 97%
    19:00 +3°C° 0 mm 2 mps 715 mmHg 97%
    20:00 +4°C° 0 mm 2 mps 715 mmHg 96%
    21:00 +3°C° 0 mm 3 mps 715 mmHg 95%
    22:00 +3°C° 0 mm 3 mps 715 mmHg 94%
    23:00 +4°C° 0 mm 3 mps 714 mmHg 94%
    Show more